When you browse on this site, cookies collect data to enhance your experience and personalize the content and advertising you see.
Visit our Privacy Policy to learn more. By continuing to use the site, you agree to this use of cookies and data.
  • In Österreich
  • Länderverzeichnis
  • Für 7 Tage
  • Wassertemperatur
  • Wetterkarte
  • News
  • Widgets
  • user-avatar
    Anmelden

    Stündliche Wetter Zastav'je

    Heute, 22 September, Sonntag

    Zeit Temperatur Niederschläge Wind Luftdruck Luftfeuchtigkeit
    00:00 +8°C° 0 mm 4 m/S 737 mmHg 75%
    01:00 +7°C° 0 mm 4 m/S 737 mmHg 73%
    02:00 +8°C° 0 mm 3 m/S 737 mmHg 72%
    03:00 +8°C° 0 mm 3 m/S 737 mmHg 73%
    04:00 +7°C° 0 mm 3 m/S 737 mmHg 73%
    05:00 +7°C° 0 mm 3 m/S 737 mmHg 74%
    06:00 +7°C° 0 mm 4 m/S 737 mmHg 70%
    07:00 +8°C° 0 mm 4 m/S 737 mmHg 66%
    08:00 +11°C° 0 mm 4 m/S 737 mmHg 61%
    09:00 +12°C° 0 mm 4 m/S 737 mmHg 58%
    10:00 +14°C° 0 mm 4 m/S 736 mmHg 54%
    11:00 +16°C° 0 mm 5 m/S 736 mmHg 51%
    12:00 +18°C° 0 mm 4 m/S 736 mmHg 49%
    13:00 +19°C° 0 mm 4 m/S 736 mmHg 48%
    14:00 +20°C° 0 mm 4 m/S 735 mmHg 47%
    15:00 +20°C° 0 mm 4 m/S 735 mmHg 50%
    16:00 +19°C° 0 mm 3 m/S 734 mmHg 53%
    17:00 +19°C° 0 mm 2 m/S 734 mmHg 56%
    18:00 +17°C° 0 mm 2 m/S 734 mmHg 62%
    19:00 +15°C° 0 mm 2 m/S 734 mmHg 68%
    20:00 +13°C° 0 mm 1 m/S 734 mmHg 74%
    21:00 +13°C° 0 mm 1 m/S 734 mmHg 75%
    22:00 +12°C° 0 mm 1 m/S 734 mmHg 76%
    23:00 +12°C° 0 mm 1 m/S 734 mmHg 77%

    Morgen, 23 September, Montag

    Zeit Temperatur Niederschläge Wind Luftdruck Luftfeuchtigkeit
    00:00 +12°C° 0 mm 1 m/S 734 mmHg 78%
    01:00 +11°C° 0 mm 1 m/S 734 mmHg 79%
    02:00 +11°C° 0 mm 1 m/S 734 mmHg 79%
    03:00 +11°C° 0 mm 1 m/S 734 mmHg 80%
    04:00 +10°C° 0 mm 1 m/S 733 mmHg 80%
    05:00 +10°C° 0 mm 1 m/S 733 mmHg 81%
    06:00 +11°C° 0 mm 1 m/S 733 mmHg 77%
    07:00 +12°C° 0 mm 1 m/S 734 mmHg 74%
    08:00 +13°C° 0 mm 1 m/S 734 mmHg 71%
    09:00 +15°C° 0 mm 2 m/S 734 mmHg 66%
    10:00 +17°C° 0 mm 2 m/S 734 mmHg 60%
    11:00 +18°C° 0 mm 2 m/S 734 mmHg 55%
    12:00 +19°C° 0 mm 2 m/S 734 mmHg 53%
    13:00 +20°C° 0 mm 2 m/S 734 mmHg 51%
    14:00 +21°C° 0 mm 2 m/S 734 mmHg 49%
    15:00 +19°C° 0 mm 3 m/S 733 mmHg 55%
    16:00 +18°C° 0 mm 4 m/S 733 mmHg 62%
    17:00 +16°C° 0 mm 5 m/S 733 mmHg 68%
    18:00 +14°C° 0 mm 5 m/S 733 mmHg 73%
    19:00 +12°C° 0 mm 4 m/S 733 mmHg 78%
    20:00 +11°C° 0 mm 4 m/S 734 mmHg 84%
    21:00 +10°C° 0 mm 4 m/S 734 mmHg 83%
    22:00 +8°C° 0 mm 4 m/S 734 mmHg 83%
    23:00 +8°C° 0 mm 4 m/S 734 mmHg 82%

    übermorgen, 24 September, Dienstag

    Zeit Temperatur Niederschläge Wind Luftdruck Luftfeuchtigkeit
    00:00 +8°C° 0 mm 3 m/S 734 mmHg 82%
    01:00 +8°C° 0 mm 3 m/S 734 mmHg 82%
    02:00 +7°C° 0 mm 3 m/S 734 mmHg 81%
    03:00 +7°C° 0 mm 3 m/S 734 mmHg 82%
    04:00 +7°C° 0 mm 3 m/S 734 mmHg 83%
    05:00 +5°C° 0 mm 3 m/S 734 mmHg 84%
    06:00 +7°C° 0 mm 3 m/S 734 mmHg 79%
    07:00 +8°C° 0 mm 3 m/S 734 mmHg 75%
    08:00 +8°C° 0 mm 4 m/S 734 mmHg 70%
    09:00 +11°C° 0 mm 3 m/S 734 mmHg 65%
    10:00 +13°C° 0 mm 3 m/S 734 mmHg 59%
    11:00 +16°C° 0 mm 3 m/S 734 mmHg 54%
    12:00 +18°C° 0 mm 3 m/S 733 mmHg 52%
    13:00 +19°C° 0 mm 3 m/S 733 mmHg 49%
    14:00 +20°C° 0 mm 3 m/S 733 mmHg 47%
    15:00 +19°C° 0 mm 3 m/S 732 mmHg 49%
    16:00 +19°C° 0 mm 2 m/S 732 mmHg 52%
    17:00 +19°C° 0 mm 2 m/S 732 mmHg 54%
    18:00 +17°C° 0 mm 2 m/S 732 mmHg 59%
    19:00 +15°C° 0 mm 2 m/S 732 mmHg 64%
    20:00 +13°C° 0 mm 2 m/S 731 mmHg 68%
    21:00 +13°C° 0 mm 2 m/S 731 mmHg 71%
    22:00 +12°C° 0 mm 2 m/S 731 mmHg 74%
    23:00 +10°C° 0 mm 3 m/S 731 mmHg 78%

    25 September, Mittwoch

    Zeit Temperatur Niederschläge Wind Luftdruck Luftfeuchtigkeit
    00:00 +10°C° 0 mm 3 m/S 731 mmHg 79%
    01:00 +10°C° 0 mm 2 m/S 731 mmHg 80%
    02:00 +9°C° 0 mm 2 m/S 731 mmHg 81%
    03:00 +9°C° 0 mm 2 m/S 731 mmHg 81%
    04:00 +9°C° 0 mm 2 m/S 731 mmHg 81%
    05:00 +9°C° 0 mm 2 m/S 730 mmHg 81%
    06:00 +10°C° 0 mm 3 m/S 730 mmHg 76%
    07:00 +12°C° 0 mm 4 m/S 730 mmHg 72%
    08:00 +13°C° 0 mm 4 m/S 730 mmHg 68%
    09:00 +15°C° 0 mm 5 m/S 730 mmHg 62%
    10:00 +16°C° 0 mm 6 m/S 730 mmHg 56%
    11:00 +18°C° 0 mm 7 m/S 730 mmHg 50%
    12:00 +20°C° 0 mm 7 m/S 730 mmHg 50%
    13:00 +20°C° 0 mm 6 m/S 730 mmHg 49%
    14:00 +20°C° 0 mm 6 m/S 729 mmHg 49%
    15:00 +20°C° 0 mm 5 m/S 729 mmHg 53%
    16:00 +19°C° 0 mm 4 m/S 729 mmHg 57%
    17:00 +19°C° 0 mm 3 m/S 729 mmHg 61%
    18:00 +18°C° 0.1 mm 3 m/S 729 mmHg 67%
    19:00 +16°C° 0.1 mm 2 m/S 729 mmHg 74%
    20:00 +15°C° 0.1 mm 2 m/S 729 mmHg 80%
    21:00 +15°C° 0.4 mm 2 m/S 729 mmHg 83%
    22:00 +15°C° 0.4 mm 1 m/S 729 mmHg 87%
    23:00 +14°C° 0.4 mm 1 m/S 729 mmHg 90%

    26 September, Donnerstag

    Zeit Temperatur Niederschläge Wind Luftdruck Luftfeuchtigkeit
    00:00 +14°C° 0.1 mm 1 m/S 729 mmHg 91%
    01:00 +13°C° 0.1 mm 1 m/S 728 mmHg 92%
    02:00 +13°C° 0.1 mm 1 m/S 728 mmHg 93%
    03:00 +13°C° 0 mm 1 m/S 728 mmHg 93%
    04:00 +12°C° 0 mm 2 m/S 728 mmHg 94%
    05:00 +12°C° 0 mm 2 m/S 729 mmHg 94%
    06:00 +13°C° 0 mm 2 m/S 729 mmHg 91%
    07:00 +13°C° 0 mm 2 m/S 729 mmHg 89%
    08:00 +13°C° 0 mm 3 m/S 729 mmHg 86%
    09:00 +14°C° 0 mm 3 m/S 729 mmHg 81%
    10:00 +16°C° 0 mm 3 m/S 730 mmHg 77%
    11:00 +18°C° 0 mm 3 m/S 730 mmHg 72%
    12:00 +18°C° 0 mm 3 m/S 730 mmHg 68%
    13:00 +19°C° 0 mm 3 m/S 729 mmHg 65%
    14:00 +19°C° 0 mm 3 m/S 729 mmHg 61%
    15:00 +19°C° 0 mm 3 m/S 729 mmHg 63%
    16:00 +18°C° 0 mm 3 m/S 729 mmHg 64%
    17:00 +18°C° 0 mm 3 m/S 729 mmHg 66%
    18:00 +17°C° 0 mm 3 m/S 730 mmHg 71%
    19:00 +16°C° 0 mm 3 m/S 730 mmHg 76%
    20:00 +13°C° 0 mm 3 m/S 730 mmHg 81%
    21:00 +13°C° 0 mm 3 m/S 730 mmHg 84%
    22:00 +12°C° 0 mm 3 m/S 731 mmHg 87%
    23:00 +12°C° 0 mm 4 m/S 731 mmHg 90%

    27 September, Freitag

    Zeit Temperatur Niederschläge Wind Luftdruck Luftfeuchtigkeit
    00:00 +11°C° 0 mm 3 m/S 731 mmHg 92%
    01:00 +11°C° 0 mm 3 m/S 731 mmHg 94%
    02:00 +10°C° 0 mm 3 m/S 731 mmHg 95%
    03:00 +10°C° 0 mm 3 m/S 731 mmHg 95%
    04:00 +10°C° 0 mm 3 m/S 732 mmHg 96%
    05:00 +9°C° 0 mm 3 m/S 732 mmHg 96%
    06:00 +10°C° 0 mm 3 m/S 732 mmHg 92%
    07:00 +11°C° 0 mm 4 m/S 732 mmHg 88%
    08:00 +12°C° 0 mm 4 m/S 732 mmHg 84%
    09:00 +14°C° 0 mm 4 m/S 732 mmHg 77%
    10:00 +15°C° 0 mm 5 m/S 732 mmHg 71%
    11:00 +17°C° 0 mm 5 m/S 733 mmHg 64%
    12:00 +17°C° 0.3 mm 5 m/S 733 mmHg 63%
    13:00 +19°C° 0.3 mm 5 m/S 732 mmHg 62%
    14:00 +19°C° 0.3 mm 5 m/S 732 mmHg 61%
    15:00 +17°C° 0.3 mm 5 m/S 732 mmHg 65%
    16:00 +18°C° 0.3 mm 4 m/S 732 mmHg 68%
    17:00 +17°C° 0.3 mm 4 m/S 732 mmHg 72%
    18:00 +16°C° 0.1 mm 3 m/S 733 mmHg 77%
    19:00 +15°C° 0.1 mm 2 m/S 733 mmHg 83%
    20:00 +13°C° 0.1 mm 2 m/S 733 mmHg 89%
    21:00 +13°C° 0 mm 1 m/S 734 mmHg 90%
    22:00 +13°C° 0 mm 1 m/S 734 mmHg 91%
    23:00 +12°C° 0 mm 1 m/S 734 mmHg 91%
    Mehr zeigen